Time,TemperatureF,DewpointF,PressureIn,WindDirection,WindDirectionDegrees,WindSpeedMPH,WindSpeedGustMPH,Humidity,HourlyPrecipIn,Conditions,Clouds,dailyrainin,SoftwareType,DateUTC
2013-09-03 00:01:00,64.0,64.0,29.26,NE,45,0.0,3.0,100,0.00,,,0.00,Rainwise IP-100,2013-09-03 04:01:00,
2013-09-03 00:06:00,64.0,64.0,29.26,NE,45,0.0,0.0,100,0.18,,,0.04,Rainwise IP-100,2013-09-03 04:06:00,
2013-09-03 00:11:00,64.0,64.0,29.26,NE,45,0.0,0.0,100,0.60,,,0.10,Rainwise IP-100,2013-09-03 04:11:00,
2013-09-03 00:16:00,65.0,65.0,29.26,SSE,157,3.0,0.0,100,0.42,,,0.10,Rainwise IP-100,2013-09-03 04:16:00,
2013-09-03 00:21:00,65.0,65.0,29.26,South,180,0.0,3.0,100,0.00,,,0.11,Rainwise IP-100,2013-09-03 04:21:00,
2013-09-03 00:26:00,65.0,65.0,29.26,South,180,0.0,0.0,100,0.12,,,0.12,Rainwise IP-100,2013-09-03 04:26:00,
2013-09-03 00:31:00,65.0,65.0,29.25,South,180,0.0,0.0,100,0.18,,,0.13,Rainwise IP-100,2013-09-03 04:31:00,
2013-09-03 00:36:00,65.0,65.0,29.25,SSE,157,0.0,3.0,100,0.24,,,0.16,Rainwise IP-100,2013-09-03 04:36:00,
2013-09-03 00:41:00,65.0,65.0,29.25,SSE,157,3.0,5.0,100,0.66,,,0.25,Rainwise IP-100,2013-09-03 04:41:00,
2013-09-03 00:46:00,65.0,65.0,29.25,South,180,3.0,5.0,100,0.54,,,0.25,Rainwise IP-100,2013-09-03 04:46:00,
2013-09-03 00:51:00,65.0,65.0,29.25,South,180,3.0,5.0,100,0.06,,,0.25,Rainwise IP-100,2013-09-03 04:51:00,
2013-09-03 00:56:00,65.0,65.0,29.25,South,180,1.0,4.0,100,0.00,,,0.25,Rainwise IP-100,2013-09-03 04:56:00,
2013-09-03 01:01:00,65.0,65.0,29.25,SSE,157,4.0,4.0,100,0.00,,,0.25,Rainwise IP-100,2013-09-03 05:01:00,
2013-09-03 01:06:00,65.0,65.0,29.25,South,180,4.0,6.0,100,0.00,,,0.25,Rainwise IP-100,2013-09-03 05:06:00,
2013-09-03 01:11:00,65.0,65.0,29.25,SSE,157,2.0,4.0,100,0.00,,,0.25,Rainwise IP-100,2013-09-03 05:11:00,
2013-09-03 01:16:00,65.0,65.0,29.25,SE,135,1.0,5.0,100,0.00,,,0.25,Rainwise IP-100,2013-09-03 05:16:00,
2013-09-03 01:21:00,64.0,64.0,29.25,SE,135,3.0,4.0,100,0.00,,,0.25,Rainwise IP-100,2013-09-03 05:21:00,
2013-09-03 01:26:00,64.0,64.0,29.25,SE,135,2.0,3.0,100,0.06,,,0.26,Rainwise IP-100,2013-09-03 05:26:00,
2013-09-03 01:31:00,64.0,64.0,29.25,East,90,3.0,4.0,100,0.06,,,0.26,Rainwise IP-100,2013-09-03 05:31:00,
2013-09-03 01:36:00,64.0,64.0,29.25,SSE,157,3.0,5.0,100,0.00,,,0.26,Rainwise IP-100,2013-09-03 05:36:00,
2013-09-03 01:41:00,64.0,64.0,29.24,SE,135,3.0,4.0,100,0.00,,,0.26,Rainwise IP-100,2013-09-03 05:41:00,
2013-09-03 01:46:00,64.0,64.0,29.24,South,180,3.0,4.0,100,0.00,,,0.26,Rainwise IP-100,2013-09-03 05:46:00,
2013-09-03 01:51:00,64.0,64.0,29.24,South,180,0.0,4.0,100,0.00,,,0.26,Rainwise IP-100,2013-09-03 05:51:00,
2013-09-03 01:56:00,64.0,64.0,29.24,South,180,0.0,3.0,100,0.00,,,0.26,Rainwise IP-100,2013-09-03 05:56:00,
2013-09-03 02:01:00,64.0,64.0,29.24,South,180,2.0,3.0,100,0.00,,,0.26,Rainwise IP-100,2013-09-03 06:01:00,
2013-09-03 02:06:00,64.0,64.0,29.24,South,180,3.0,4.0,100,0.00,,,0.26,Rainwise IP-100,2013-09-03 06:06:00,
2013-09-03 02:11:00,64.0,64.0,29.23,East,90,1.0,4.0,100,0.00,,,0.26,Rainwise IP-100,2013-09-03 06:11:00,
2013-09-03 02:16:00,64.0,64.0,29.23,East,90,2.0,4.0,100,0.00,,,0.26,Rainwise IP-100,2013-09-03 06:16:00,
2013-09-03 02:21:00,64.0,64.0,29.23,SSE,157,5.0,5.0,100,0.00,,,0.26,Rainwise IP-100,2013-09-03 06:21:00,
2013-09-03 02:26:00,64.0,64.0,29.23,SE,135,1.0,6.0,100,0.00,,,0.26,Rainwise IP-100,2013-09-03 06:26:00,
2013-09-03 02:31:00,64.0,64.0,29.23,ESE,112,2.0,3.0,100,0.00,,,0.26,Rainwise IP-100,2013-09-03 06:31:00,
2013-09-03 02:36:00,64.0,64.0,29.23,South,180,2.0,3.0,100,0.00,,,0.26,Rainwise IP-100,2013-09-03 06:36:00,
2013-09-03 02:41:00,64.0,64.0,29.23,East,90,0.0,4.0,100,0.00,,,0.26,Rainwise IP-100,2013-09-03 06:41:00,
2013-09-03 02:46:00,64.0,64.0,29.23,NE,45,0.0,4.0,100,0.00,,,0.26,Rainwise IP-100,2013-09-03 06:46:00,
2013-09-03 02:51:00,64.0,64.0,29.22,NE,45,0.0,2.0,100,0.00,,,0.26,Rainwise IP-100,2013-09-03 06:51:00,
2013-09-03 02:56:00,64.0,64.0,29.22,SSE,157,3.0,4.0,100,0.00,,,0.26,Rainwise IP-100,2013-09-03 06:56:00,
2013-09-03 03:01:00,64.0,64.0,29.22,SE,135,1.0,5.0,100,0.00,,,0.26,Rainwise IP-100,2013-09-03 07:01:00,
2013-09-03 03:06:00,64.0,64.0,29.22,SE,135,0.0,4.0,100,0.00,,,0.26,Rainwise IP-100,2013-09-03 07:06:00,
2013-09-03 03:11:00,64.0,64.0,29.22,SE,135,2.0,3.0,100,0.00,,,0.26,Rainwise IP-100,2013-09-03 07:11:00,
2013-09-03 03:16:00,64.0,64.0,29.22,ESE,112,1.0,3.0,100,0.00,,,0.26,Rainwise IP-100,2013-09-03 07:16:00,
2013-09-03 03:21:00,64.0,64.0,29.22,ESE,112,1.0,3.0,100,0.00,,,0.26,Rainwise IP-100,2013-09-03 07:21:00,
2013-09-03 03:26:00,64.0,64.0,29.22,ESE,112,0.0,3.0,100,0.00,,,0.26,Rainwise IP-100,2013-09-03 07:26:00,
2013-09-03 03:31:00,64.0,64.0,29.21,ESE,112,2.0,0.0,100,0.00,,,0.26,Rainwise IP-100,2013-09-03 07:31:00,
2013-09-03 03:36:00,64.0,64.0,29.21,ESE,112,0.0,2.0,100,0.00,,,0.26,Rainwise IP-100,2013-09-03 07:36:00,
2013-09-03 03:41:00,64.0,64.0,29.21,ESE,112,3.0,3.0,100,0.00,,,0.26,Rainwise IP-100,2013-09-03 07:41:00,
2013-09-03 03:46:00,64.0,64.0,29.21,ESE,112,0.0,4.0,100,0.00,,,0.26,Rainwise IP-100,2013-09-03 07:46:00,
2013-09-03 03:51:00,64.0,64.0,29.21,SSE,157,3.0,3.0,100,0.00,,,0.26,Rainwise IP-100,2013-09-03 07:51:00,
2013-09-03 03:56:00,64.0,64.0,29.21,SSE,157,3.0,4.0,100,0.00,,,0.26,Rainwise IP-100,2013-09-03 07:56:00,
2013-09-03 04:01:00,64.0,64.0,29.21,SE,135,2.0,4.0,100,0.00,,,0.26,Rainwise IP-100,2013-09-03 08:01:00,
2013-09-03 04:06:00,64.0,64.0,29.21,ESE,112,2.0,3.0,100,0.00,,,0.26,Rainwise IP-100,2013-09-03 08:06:00,
2013-09-03 04:11:00,64.0,64.0,29.21,NE,45,3.0,4.0,100,0.00,,,0.26,Rainwise IP-100,2013-09-03 08:11:00,
2013-09-03 04:16:00,64.0,64.0,29.21,ENE,67,1.0,4.0,100,0.00,,,0.26,Rainwise IP-100,2013-09-03 08:16:00,
2013-09-03 04:21:00,64.0,64.0,29.21,ENE,67,0.0,4.0,100,0.00,,,0.26,Rainwise IP-100,2013-09-03 08:21:00,
2013-09-03 04:26:00,64.0,64.0,29.21,East,90,2.0,3.0,100,0.00,,,0.26,Rainwise IP-100,2013-09-03 08:26:00,
2013-09-03 04:31:00,64.0,64.0,29.20,ESE,112,1.0,3.0,100,0.00,,,0.26,Rainwise IP-100,2013-09-03 08:31:00,
2013-09-03 04:36:00,64.0,64.0,29.20,ESE,112,1.0,3.0,100,0.00,,,0.26,Rainwise IP-100,2013-09-03 08:36:00,
2013-09-03 04:41:00,64.0,64.0,29.20,ESE,112,0.0,4.0,100,0.00,,,0.26,Rainwise IP-100,2013-09-03 08:41:00,
2013-09-03 04:46:00,64.0,64.0,29.20,ESE,112,0.0,0.0,100,0.00,,,0.26,Rainwise IP-100,2013-09-03 08:46:00,
2013-09-03 04:51:00,64.0,64.0,29.20,ESE,112,0.0,0.0,100,0.06,,,0.27,Rainwise IP-100,2013-09-03 08:51:00,
2013-09-03 04:56:00,64.0,64.0,29.20,ESE,112,0.0,0.0,100,0.06,,,0.27,Rainwise IP-100,2013-09-03 08:56:00,
2013-09-03 05:01:00,64.0,64.0,29.20,ESE,112,0.0,0.0,100,0.00,,,0.27,Rainwise IP-100,2013-09-03 09:01:00,
2013-09-03 05:06:00,64.0,64.0,29.20,ESE,112,0.0,0.0,100,0.00,,,0.27,Rainwise IP-100,2013-09-03 09:06:00,
2013-09-03 05:11:00,64.0,64.0,29.21,ESE,112,0.0,0.0,100,0.00,,,0.27,Rainwise IP-100,2013-09-03 09:11:00,
2013-09-03 05:16:00,64.0,64.0,29.21,ESE,112,0.0,0.0,100,0.00,,,0.27,Rainwise IP-100,2013-09-03 09:16:00,
2013-09-03 05:21:00,64.0,64.0,29.21,ESE,112,0.0,0.0,100,0.00,,,0.27,Rainwise IP-100,2013-09-03 09:21:00,
2013-09-03 05:26:00,64.0,64.0,29.21,ESE,112,0.0,0.0,100,0.00,,,0.27,Rainwise IP-100,2013-09-03 09:26:00,
2013-09-03 05:31:00,64.0,64.0,29.22,ESE,112,0.0,0.0,100,0.00,,,0.27,Rainwise IP-100,2013-09-03 09:31:00,
2013-09-03 05:36:00,64.0,64.0,29.22,ESE,112,0.0,0.0,100,0.00,,,0.27,Rainwise IP-100,2013-09-03 09:36:00,
2013-09-03 05:41:00,64.0,64.0,29.22,ESE,112,0.0,0.0,100,0.00,,,0.27,Rainwise IP-100,2013-09-03 09:41:00,
2013-09-03 05:46:00,64.0,64.0,29.22,ESE,112,0.0,0.0,100,0.00,,,0.27,Rainwise IP-100,2013-09-03 09:46:00,
2013-09-03 05:51:00,64.0,64.0,29.22,ESE,112,0.0,0.0,100,0.00,,,0.27,Rainwise IP-100,2013-09-03 09:51:00,
2013-09-03 05:56:00,64.0,64.0,29.22,ESE,112,0.0,0.0,100,0.00,,,0.27,Rainwise IP-100,2013-09-03 09:56:00,
2013-09-03 06:01:00,64.0,64.0,29.22,ESE,112,0.0,0.0,100,0.00,,,0.27,Rainwise IP-100,2013-09-03 10:01:00,
2013-09-03 06:06:00,64.0,64.0,29.22,ESE,112,0.0,0.0,100,0.00,,,0.27,Rainwise IP-100,2013-09-03 10:06:00,
2013-09-03 06:11:00,64.0,64.0,29.22,ESE,112,0.0,0.0,100,0.00,,,0.27,Rainwise IP-100,2013-09-03 10:11:00,
2013-09-03 06:16:00,64.0,64.0,29.22,ESE,112,0.0,0.0,100,0.00,,,0.27,Rainwise IP-100,2013-09-03 10:16:00,
2013-09-03 06:21:00,64.0,64.0,29.23,ESE,112,0.0,0.0,100,0.00,,,0.27,Rainwise IP-100,2013-09-03 10:21:00,
2013-09-03 06:26:00,64.0,64.0,29.23,ESE,112,0.0,0.0,100,0.00,,,0.27,Rainwise IP-100,2013-09-03 10:26:00,
2013-09-03 06:31:00,64.0,64.0,29.22,ESE,112,0.0,0.0,100,0.00,,,0.27,Rainwise IP-100,2013-09-03 10:31:00,
2013-09-03 06:36:00,64.0,64.0,29.22,ESE,112,0.0,0.0,100,0.00,,,0.27,Rainwise IP-100,2013-09-03 10:36:00,
2013-09-03 06:41:00,64.0,64.0,29.23,ESE,112,0.0,0.0,100,0.00,,,0.27,Rainwise IP-100,2013-09-03 10:41:00,
2013-09-03 06:46:00,64.0,64.0,29.23,ESE,112,0.0,0.0,100,0.00,,,0.27,Rainwise IP-100,2013-09-03 10:46:00,
2013-09-03 06:51:00,64.0,64.0,29.23,ESE,112,0.0,0.0,100,0.00,,,0.27,Rainwise IP-100,2013-09-03 10:51:00,
2013-09-03 06:56:00,64.0,64.0,29.23,ESE,112,0.0,0.0,100,0.00,,,0.27,Rainwise IP-100,2013-09-03 10:56:00,
2013-09-03 07:01:00,64.0,64.0,29.23,ESE,112,0.0,0.0,100,0.00,,,0.27,Rainwise IP-100,2013-09-03 11:01:00,
2013-09-03 07:06:00,64.0,64.0,29.23,ESE,112,0.0,0.0,100,0.00,,,0.27,Rainwise IP-100,2013-09-03 11:06:00,
2013-09-03 07:10:00,64.0,64.0,29.24,ESE,112,0.0,0.0,100,0.00,,,0.27,Rainwise IP-100,2013-09-03 11:10:00,
2013-09-03 07:15:00,64.0,64.0,29.24,ESE,112,0.0,0.0,100,0.00,,,0.27,Rainwise IP-100,2013-09-03 11:15:00,
2013-09-03 07:20:00,64.0,64.0,29.24,ESE,112,0.0,0.0,100,0.00,,,0.27,Rainwise IP-100,2013-09-03 11:20:00,
2013-09-03 07:25:00,64.0,64.0,29.24,ESE,112,0.0,0.0,100,0.00,,,0.27,Rainwise IP-100,2013-09-03 11:25:00,
2013-09-03 07:30:00,64.0,64.0,29.24,ESE,112,0.0,0.0,100,0.00,,,0.27,Rainwise IP-100,2013-09-03 11:30:00,
2013-09-03 07:35:00,64.0,64.0,29.24,SSE,157,0.0,4.0,100,0.00,,,0.27,Rainwise IP-100,2013-09-03 11:35:00,
2013-09-03 07:40:00,65.0,65.0,29.25,SSE,157,0.0,2.0,100,0.00,,,0.27,Rainwise IP-100,2013-09-03 11:40:00,
2013-09-03 07:45:00,65.0,65.0,29.25,SSE,157,0.0,0.0,100,0.00,,,0.27,Rainwise IP-100,2013-09-03 11:45:00,
2013-09-03 07:50:00,65.0,65.0,29.25,SSE,157,3.0,3.0,100,0.00,,,0.27,Rainwise IP-100,2013-09-03 11:50:00,
2013-09-03 07:55:00,65.0,65.0,29.25,SSE,157,0.0,3.0,100,0.00,,,0.27,Rainwise IP-100,2013-09-03 11:55:00,
2013-09-03 08:00:00,65.0,65.0,29.25,SSE,157,0.0,0.0,100,0.00,,,0.27,Rainwise IP-100,2013-09-03 12:00:00,
2013-09-03 08:05:00,65.0,65.0,29.25,SSE,157,0.0,0.0,100,0.00,,,0.27,Rainwise IP-100,2013-09-03 12:05:00,
2013-09-03 08:10:00,65.0,65.0,29.25,SSE,157,0.0,2.0,100,0.00,,,0.27,Rainwise IP-100,2013-09-03 12:10:00,
2013-09-03 08:15:00,65.0,65.0,29.25,SSE,157,0.0,0.0,100,0.00,,,0.27,Rainwise IP-100,2013-09-03 12:15:00,
2013-09-03 08:20:00,65.0,65.0,29.25,SSE,157,3.0,3.0,100,0.00,,,0.27,Rainwise IP-100,2013-09-03 12:20:00,
2013-09-03 08:25:00,65.0,65.0,29.25,South,180,4.0,4.0,100,0.00,,,0.27,Rainwise IP-100,2013-09-03 12:25:00,
2013-09-03 08:30:00,65.0,65.0,29.26,South,180,1.0,4.0,100,0.00,,,0.27,Rainwise IP-100,2013-09-03 12:30:00,
2013-09-03 08:35:00,65.0,65.0,29.26,South,180,3.0,4.0,100,0.00,,,0.27,Rainwise IP-100,2013-09-03 12:35:00,
2013-09-03 08:40:00,65.0,65.0,29.26,South,180,3.0,4.0,100,0.00,,,0.27,Rainwise IP-100,2013-09-03 12:40:00,
2013-09-03 08:45:00,65.0,65.0,29.26,South,180,4.0,5.0,100,0.00,,,0.27,Rainwise IP-100,2013-09-03 12:45:00,
2013-09-03 08:50:00,65.0,65.0,29.27,South,180,4.0,5.0,100,0.00,,,0.27,Rainwise IP-100,2013-09-03 12:50:00,
2013-09-03 08:55:00,65.0,65.0,29.27,South,180,3.0,5.0,100,0.00,,,0.27,Rainwise IP-100,2013-09-03 12:55:00,
2013-09-03 09:00:00,65.0,65.0,29.27,SSE,157,3.0,4.0,100,0.00,,,0.27,Rainwise IP-100,2013-09-03 13:00:00,
2013-09-03 09:05:00,65.0,65.0,29.27,South,180,3.0,4.0,100,0.00,,,0.27,Rainwise IP-100,2013-09-03 13:05:00,
2013-09-03 09:10:00,65.0,65.0,29.27,South,180,2.0,4.0,100,0.00,,,0.27,Rainwise IP-100,2013-09-03 13:10:00,
2013-09-03 09:15:00,65.0,65.0,29.27,South,180,0.0,2.0,100,0.00,,,0.27,Rainwise IP-100,2013-09-03 13:15:00,
2013-09-03 09:20:00,66.0,66.0,29.27,South,180,0.0,3.0,100,0.00,,,0.27,Rainwise IP-100,2013-09-03 13:20:00,
2013-09-03 09:25:00,66.0,66.0,29.27,South,180,0.0,0.0,100,0.00,,,0.27,Rainwise IP-100,2013-09-03 13:25:00,
2013-09-03 09:30:00,66.0,66.0,29.28,South,180,0.0,0.0,100,0.00,,,0.27,Rainwise IP-100,2013-09-03 13:30:00,
2013-09-03 09:35:00,66.0,66.0,29.28,South,180,0.0,0.0,100,0.00,,,0.27,Rainwise IP-100,2013-09-03 13:35:00,
2013-09-03 09:40:00,66.0,66.0,29.27,South,180,0.0,0.0,100,0.00,,,0.27,Rainwise IP-100,2013-09-03 13:40:00,
2013-09-03 09:45:00,67.0,67.0,29.27,South,180,0.0,0.0,100,0.00,,,0.27,Rainwise IP-100,2013-09-03 13:45:00,
2013-09-03 09:50:00,67.0,67.0,29.27,South,180,0.0,0.0,100,0.00,,,0.27,Rainwise IP-100,2013-09-03 13:50:00,
2013-09-03 09:55:00,67.0,67.0,29.27,South,180,0.0,0.0,100,0.00,,,0.27,Rainwise IP-100,2013-09-03 13:55:00,
2013-09-03 10:00:00,67.0,67.0,29.27,South,180,2.0,2.0,100,0.00,,,0.27,Rainwise IP-100,2013-09-03 14:00:00,
2013-09-03 10:05:00,67.0,67.0,29.27,South,180,3.0,3.0,100,0.00,,,0.27,Rainwise IP-100,2013-09-03 14:05:00,
2013-09-03 10:10:00,67.0,67.0,29.28,South,180,3.0,3.0,100,0.00,,,0.27,Rainwise IP-100,2013-09-03 14:10:00,
2013-09-03 10:15:00,67.0,67.0,29.28,South,180,3.0,3.0,100,0.00,,,0.27,Rainwise IP-100,2013-09-03 14:15:00,
2013-09-03 10:20:00,67.0,67.0,29.28,South,180,2.0,3.0,100,0.00,,,0.27,Rainwise IP-100,2013-09-03 14:20:00,
2013-09-03 10:25:00,67.0,67.0,29.28,South,180,3.0,3.0,100,0.00,,,0.27,Rainwise IP-100,2013-09-03 14:25:00,
2013-09-03 10:30:00,67.0,67.0,29.27,South,180,2.0,3.0,100,0.00,,,0.27,Rainwise IP-100,2013-09-03 14:30:00,
2013-09-03 10:35:00,68.0,68.0,29.27,South,180,1.0,3.0,100,0.00,,,0.27,Rainwise IP-100,2013-09-03 14:35:00,
2013-09-03 10:40:00,67.0,67.0,29.27,South,180,3.0,4.0,100,0.00,,,0.27,Rainwise IP-100,2013-09-03 14:40:00,
2013-09-03 10:45:00,68.0,68.0,29.27,South,180,4.0,5.0,100,0.00,,,0.27,Rainwise IP-100,2013-09-03 14:45:00,
2013-09-03 10:50:00,67.0,67.0,29.27,South,180,2.0,4.0,100,0.00,,,0.27,Rainwise IP-100,2013-09-03 14:50:00,
2013-09-03 10:55:00,68.0,68.0,29.27,South,180,3.0,4.0,100,0.00,,,0.27,Rainwise IP-100,2013-09-03 14:55:00,
2013-09-03 11:00:00,68.0,68.0,29.27,South,180,4.0,4.0,100,0.00,,,0.27,Rainwise IP-100,2013-09-03 15:00:00,
2013-09-03 11:05:00,68.0,68.0,29.27,South,180,0.0,4.0,100,0.00,,,0.27,Rainwise IP-100,2013-09-03 15:05:00,
2013-09-03 11:10:00,69.0,69.0,29.28,South,180,3.0,3.0,100,0.00,,,0.27,Rainwise IP-100,2013-09-03 15:10:00,
2013-09-03 11:15:00,69.0,69.0,29.28,South,180,0.0,3.0,100,0.00,,,0.27,Rainwise IP-100,2013-09-03 15:15:00,
2013-09-03 11:20:00,68.0,68.0,29.27,South,180,3.0,4.0,100,0.00,,,0.27,Rainwise IP-100,2013-09-03 15:20:00,
2013-09-03 11:25:00,68.0,68.0,29.27,South,180,1.0,4.0,100,0.00,,,0.27,Rainwise IP-100,2013-09-03 15:25:00,
2013-09-03 11:30:00,69.0,69.0,29.27,SSE,157,1.0,4.0,100,0.00,,,0.27,Rainwise IP-100,2013-09-03 15:30:00,
2013-09-03 11:35:00,69.0,69.0,29.27,SSE,157,2.0,3.0,100,0.00,,,0.27,Rainwise IP-100,2013-09-03 15:35:00,
2013-09-03 11:40:00,69.0,69.0,29.27,SSE,157,0.0,3.0,100,0.00,,,0.27,Rainwise IP-100,2013-09-03 15:40:00,
2013-09-03 11:45:00,69.0,69.0,29.27,South,180,3.0,4.0,100,0.00,,,0.27,Rainwise IP-100,2013-09-03 15:45:00,
2013-09-03 11:50:00,69.0,69.0,29.27,South,180,3.0,4.0,100,0.00,,,0.27,Rainwise IP-100,2013-09-03 15:50:00,
2013-09-03 11:55:00,70.0,70.0,29.27,South,180,0.0,3.0,100,0.00,,,0.27,Rainwise IP-100,2013-09-03 15:55:00,
2013-09-03 12:00:00,70.0,70.0,29.27,SSW,202,3.0,3.0,100,0.00,,,0.27,Rainwise IP-100,2013-09-03 16:00:00,
2013-09-03 12:05:00,71.0,71.0,29.27,WSW,247,0.0,5.0,100,0.00,,,0.27,Rainwise IP-100,2013-09-03 16:05:00,
2013-09-03 12:10:00,71.0,71.0,29.26,West,270,2.0,4.0,100,0.00,,,0.27,Rainwise IP-100,2013-09-03 16:10:00,
2013-09-03 12:15:00,71.0,71.0,29.26,SW,225,5.0,6.0,100,0.00,,,0.27,Rainwise IP-100,2013-09-03 16:15:00,
2013-09-03 12:20:00,72.0,72.0,29.25,West,270,3.0,6.0,100,0.00,,,0.27,Rainwise IP-100,2013-09-03 16:20:00,
2013-09-03 12:25:00,72.0,72.0,29.25,West,270,7.0,7.0,100,0.00,,,0.27,Rainwise IP-100,2013-09-03 16:25:00,
2013-09-03 12:30:00,71.0,71.0,29.26,SW,225,4.0,7.0,100,0.00,,,0.27,Rainwise IP-100,2013-09-03 16:30:00,
2013-09-03 12:35:00,71.0,71.0,29.26,South,180,5.0,7.0,100,0.00,,,0.27,Rainwise IP-100,2013-09-03 16:35:00,
2013-09-03 12:40:00,71.0,71.0,29.27,SW,225,0.0,8.0,100,0.00,,,0.27,Rainwise IP-100,2013-09-03 16:40:00,
2013-09-03 12:45:00,71.0,71.0,29.27,West,270,4.0,4.0,100,0.00,,,0.27,Rainwise IP-100,2013-09-03 16:45:00,
2013-09-03 12:50:00,71.0,71.0,29.27,West,270,3.0,9.0,100,0.00,,,0.27,Rainwise IP-100,2013-09-03 16:50:00,
2013-09-03 12:55:00,71.0,71.0,29.27,SW,225,5.0,5.0,100,0.00,,,0.27,Rainwise IP-100,2013-09-03 16:55:00,
2013-09-03 13:00:00,71.0,71.0,29.25,West,270,7.0,8.0,100,0.00,,,0.27,Rainwise IP-100,2013-09-03 17:00:00,
2013-09-03 13:01:00,71.0,71.0,29.25,SW,225,3.0,8.0,100,0.00,,,0.27,Rainwise IP-100,2013-09-03 17:01:00,
2013-09-03 13:06:00,71.0,71.0,29.25,SW,225,6.0,6.0,100,0.00,,,0.27,Rainwise IP-100,2013-09-03 17:06:00,
2013-09-03 13:11:00,72.0,72.0,29.25,West,270,4.0,7.0,100,0.00,,,0.27,Rainwise IP-100,2013-09-03 17:11:00,
2013-09-03 13:16:00,72.0,72.0,29.25,SW,225,0.0,7.0,100,0.00,,,0.27,Rainwise IP-100,2013-09-03 17:16:00,
2013-09-03 13:21:00,72.0,71.0,29.25,WSW,247,4.0,8.0,99,0.00,,,0.27,Rainwise IP-100,2013-09-03 17:21:00,
2013-09-03 13:26:00,72.0,71.0,29.25,WSW,247,2.0,8.0,99,0.00,,,0.27,Rainwise IP-100,2013-09-03 17:26:00,
2013-09-03 13:31:00,72.0,71.0,29.25,West,270,5.0,6.0,99,0.00,,,0.27,Rainwise IP-100,2013-09-03 17:31:00,
2013-09-03 13:36:00,72.0,71.0,29.25,West,270,3.0,7.0,98,0.00,,,0.27,Rainwise IP-100,2013-09-03 17:36:00,
2013-09-03 13:41:00,72.0,70.0,29.26,West,270,6.0,12.0,95,0.00,,,0.27,Rainwise IP-100,2013-09-03 17:41:00,
2013-09-03 13:46:00,72.0,71.0,29.26,WSW,247,5.0,12.0,97,0.00,,,0.27,Rainwise IP-100,2013-09-03 17:46:00,
2013-09-03 13:51:00,72.0,71.0,29.25,West,270,4.0,9.0,97,0.00,,,0.27,Rainwise IP-100,2013-09-03 17:51:00,
2013-09-03 13:56:00,72.0,71.0,29.25,WSW,247,7.0,8.0,96,0.00,,,0.27,Rainwise IP-100,2013-09-03 17:56:00,
2013-09-03 14:01:00,72.0,71.0,29.25,West,270,8.0,8.0,96,0.00,,,0.27,Rainwise IP-100,2013-09-03 18:01:00,
2013-09-03 14:06:00,72.0,69.0,29.25,WSW,247,8.0,12.0,93,0.00,,,0.27,Rainwise IP-100,2013-09-03 18:06:00,
2013-09-03 14:11:00,72.0,70.0,29.25,West,270,6.0,10.0,94,0.00,,,0.27,Rainwise IP-100,2013-09-03 18:11:00,
2013-09-03 14:16:00,72.0,70.0,29.25,West,270,5.0,8.0,94,0.00,,,0.27,Rainwise IP-100,2013-09-03 18:16:00,
2013-09-03 14:21:00,73.0,70.0,29.25,West,270,7.0,12.0,91,0.00,,,0.27,Rainwise IP-100,2013-09-03 18:21:00,
2013-09-03 14:26:00,73.0,70.0,29.25,West,270,5.0,8.0,92,0.00,,,0.27,Rainwise IP-100,2013-09-03 18:26:00,
2013-09-03 14:31:00,74.0,71.0,29.25,West,270,6.0,10.0,91,0.00,,,0.27,Rainwise IP-100,2013-09-03 18:31:00,
2013-09-03 14:36:00,74.0,71.0,29.25,SSW,202,7.0,10.0,90,0.00,,,0.27,Rainwise IP-100,2013-09-03 18:36:00,
2013-09-03 14:41:00,75.0,72.0,29.25,SW,225,4.0,8.0,90,0.00,,,0.27,Rainwise IP-100,2013-09-03 18:41:00,
2013-09-03 14:46:00,75.0,70.0,29.25,West,270,6.0,9.0,85,0.00,,,0.27,Rainwise IP-100,2013-09-03 18:46:00,
2013-09-03 14:51:00,76.0,72.0,29.25,WSW,247,3.0,12.0,88,0.00,,,0.27,Rainwise IP-100,2013-09-03 18:51:00,
2013-09-03 14:56:00,77.0,72.0,29.25,SW,225,5.0,9.0,85,0.00,,,0.27,Rainwise IP-100,2013-09-03 18:56:00,
2013-09-03 15:01:00,76.0,69.0,29.25,SW,225,6.0,12.0,81,0.00,,,0.27,Rainwise IP-100,2013-09-03 19:01:00,
2013-09-03 15:06:00,75.0,69.0,29.25,West,270,10.0,13.0,82,0.00,,,0.27,Rainwise IP-100,2013-09-03 19:06:00,
2013-09-03 15:11:00,75.0,71.0,29.25,WSW,247,3.0,12.0,86,0.00,,,0.27,Rainwise IP-100,2013-09-03 19:11:00,
2013-09-03 15:16:00,75.0,71.0,29.25,South,180,3.0,10.0,87,0.00,,,0.27,Rainwise IP-100,2013-09-03 19:16:00,
2013-09-03 15:21:00,76.0,71.0,29.24,SW,225,7.0,12.0,85,0.00,,,0.27,Rainwise IP-100,2013-09-03 19:21:00,
2013-09-03 15:26:00,75.0,71.0,29.24,SW,225,4.0,12.0,88,0.00,,,0.27,Rainwise IP-100,2013-09-03 19:26:00,
2013-09-03 15:31:00,75.0,71.0,29.24,West,270,8.0,11.0,87,0.00,,,0.27,Rainwise IP-100,2013-09-03 19:31:00,
2013-09-03 15:36:00,75.0,71.0,29.24,WSW,247,8.0,12.0,86,0.00,,,0.27,Rainwise IP-100,2013-09-03 19:36:00,
2013-09-03 15:41:00,74.0,69.0,29.23,SW,225,3.0,10.0,86,0.00,,,0.27,Rainwise IP-100,2013-09-03 19:41:00,
2013-09-03 15:46:00,74.0,70.0,29.23,SW,225,4.0,12.0,87,0.00,,,0.27,Rainwise IP-100,2013-09-03 19:46:00,
2013-09-03 15:51:00,74.0,70.0,29.23,SSW,202,6.0,11.0,88,0.00,,,0.27,Rainwise IP-100,2013-09-03 19:51:00,
2013-09-03 15:52:00,74.0,70.0,29.23,SW,225,6.0,11.0,88,0.00,,,0.27,Rainwise IP-100,2013-09-03 19:52:00,
2013-09-03 15:57:00,74.0,70.0,29.23,SW,225,3.0,10.0,87,0.00,,,0.27,Rainwise IP-100,2013-09-03 19:57:00,
2013-09-03 16:02:00,75.0,71.0,29.23,SW,225,5.0,10.0,87,0.00,,,0.27,Rainwise IP-100,2013-09-03 20:02:00,
2013-09-03 16:07:00,75.0,70.0,29.23,SW,225,5.0,10.0,84,0.00,,,0.27,Rainwise IP-100,2013-09-03 20:07:00,
2013-09-03 16:12:00,75.0,71.0,29.24,South,180,4.0,9.0,86,0.00,,,0.27,Rainwise IP-100,2013-09-03 20:12:00,
2013-09-03 16:17:00,75.0,71.0,29.24,SW,225,5.0,9.0,87,0.00,,,0.27,Rainwise IP-100,2013-09-03 20:17:00,
2013-09-03 16:22:00,75.0,71.0,29.24,SW,225,5.0,9.0,89,0.00,,,0.27,Rainwise IP-100,2013-09-03 20:22:00,
2013-09-03 16:27:00,74.0,70.0,29.24,South,180,5.0,10.0,87,0.00,,,0.27,Rainwise IP-100,2013-09-03 20:27:00,
2013-09-03 16:32:00,74.0,71.0,29.24,SW,225,6.0,10.0,90,0.00,,,0.27,Rainwise IP-100,2013-09-03 20:32:00,
2013-09-03 16:37:00,73.0,70.0,29.24,SW,225,7.0,9.0,91,0.00,,,0.27,Rainwise IP-100,2013-09-03 20:37:00,
2013-09-03 16:42:00,73.0,70.0,29.23,SSW,202,5.0,9.0,91,0.00,,,0.27,Rainwise IP-100,2013-09-03 20:42:00,
2013-09-03 16:47:00,73.0,70.0,29.23,SSW,202,3.0,9.0,91,0.00,,,0.27,Rainwise IP-100,2013-09-03 20:47:00,
2013-09-03 16:52:00,73.0,70.0,29.23,SSW,202,4.0,5.0,91,0.00,,,0.27,Rainwise IP-100,2013-09-03 20:52:00,
2013-09-03 16:57:00,73.0,70.0,29.23,South,180,3.0,8.0,91,0.00,,,0.27,Rainwise IP-100,2013-09-03 20:57:00,
2013-09-03 17:02:00,72.0,69.0,29.23,SSE,157,3.0,8.0,91,0.00,,,0.27,Rainwise IP-100,2013-09-03 21:02:00,
2013-09-03 17:07:00,72.0,69.0,29.23,South,180,4.0,6.0,92,0.00,,,0.27,Rainwise IP-100,2013-09-03 21:07:00,
2013-09-03 17:12:00,72.0,69.0,29.23,South,180,3.0,7.0,92,0.00,,,0.27,Rainwise IP-100,2013-09-03 21:12:00,
2013-09-03 17:17:00,71.0,69.0,29.23,South,180,3.0,9.0,93,0.00,,,0.27,Rainwise IP-100,2013-09-03 21:17:00,
2013-09-03 17:22:00,72.0,70.0,29.23,ESE,112,5.0,9.0,94,0.00,,,0.27,Rainwise IP-100,2013-09-03 21:22:00,
2013-09-03 17:24:00,71.0,69.0,29.23,SW,225,4.0,7.0,95,0.00,,,0.27,Rainwise IP-100,2013-09-03 21:24:00,
2013-09-03 17:29:00,71.0,69.0,29.22,South,180,5.0,6.0,94,0.00,,,0.27,Rainwise IP-100,2013-09-03 21:29:00,
2013-09-03 17:31:00,71.0,69.0,29.22,East,90,3.0,7.0,94,0.00,,,0.27,Rainwise IP-100,2013-09-03 21:31:00,
2013-09-03 17:32:00,71.0,69.0,29.22,SSW,202,4.0,7.0,94,0.00,,,0.27,Rainwise IP-100,2013-09-03 21:32:00,
2013-09-03 17:37:00,71.0,69.0,29.22,West,270,3.0,9.0,95,0.00,,,0.27,Rainwise IP-100,2013-09-03 21:37:00,
2013-09-03 17:42:00,71.0,69.0,29.22,SSE,157,3.0,5.0,95,0.00,,,0.27,Rainwise IP-100,2013-09-03 21:42:00,
2013-09-03 17:47:00,71.0,69.0,29.22,SSW,202,5.0,7.0,95,0.00,,,0.27,Rainwise IP-100,2013-09-03 21:47:00,
2013-09-03 17:52:00,71.0,69.0,29.22,South,180,7.0,7.0,95,0.00,,,0.27,Rainwise IP-100,2013-09-03 21:52:00,
2013-09-03 17:57:00,70.0,69.0,29.22,South,180,3.0,8.0,96,0.00,,,0.27,Rainwise IP-100,2013-09-03 21:57:00,
2013-09-03 18:02:00,70.0,69.0,29.22,South,180,4.0,10.0,96,0.00,,,0.27,Rainwise IP-100,2013-09-03 22:02:00,
2013-09-03 18:07:00,70.0,69.0,29.22,SW,225,3.0,7.0,97,0.00,,,0.27,Rainwise IP-100,2013-09-03 22:07:00,
2013-09-03 18:12:00,70.0,69.0,29.21,SSW,202,3.0,8.0,97,0.00,,,0.27,Rainwise IP-100,2013-09-03 22:12:00,
2013-09-03 18:17:00,70.0,69.0,29.21,SW,225,4.0,8.0,97,0.00,,,0.27,Rainwise IP-100,2013-09-03 22:17:00,
2013-09-03 18:22:00,69.0,68.0,29.21,SSW,202,6.0,9.0,97,0.00,,,0.27,Rainwise IP-100,2013-09-03 22:22:00,
2013-09-03 18:27:00,69.0,68.0,29.21,West,270,3.0,9.0,97,0.00,,,0.27,Rainwise IP-100,2013-09-03 22:27:00,
2013-09-03 18:32:00,69.0,68.0,29.21,West,270,8.0,10.0,98,0.00,,,0.27,Rainwise IP-100,2013-09-03 22:32:00,
2013-09-03 18:37:00,69.0,68.0,29.21,West,270,4.0,9.0,98,0.00,,,0.27,Rainwise IP-100,2013-09-03 22:37:00,
2013-09-03 18:42:00,69.0,68.0,29.22,WSW,247,3.0,9.0,98,0.00,,,0.27,Rainwise IP-100,2013-09-03 22:42:00,
2013-09-03 18:47:00,69.0,68.0,29.22,SSW,202,3.0,5.0,98,0.00,,,0.27,Rainwise IP-100,2013-09-03 22:47:00,
2013-09-03 18:52:00,69.0,68.0,29.22,WSW,247,0.0,10.0,98,0.00,,,0.27,Rainwise IP-100,2013-09-03 22:52:00,
2013-09-03 18:57:00,69.0,68.0,29.22,West,270,1.0,6.0,98,0.00,,,0.27,Rainwise IP-100,2013-09-03 22:57:00,
2013-09-03 19:02:00,68.0,67.0,29.22,SW,225,7.0,9.0,99,0.00,,,0.27,Rainwise IP-100,2013-09-03 23:02:00,
2013-09-03 19:07:00,68.0,68.0,29.22,SW,225,4.0,13.0,100,0.00,,,0.27,Rainwise IP-100,2013-09-03 23:07:00,
2013-09-03 19:12:00,68.0,68.0,29.22,SW,225,4.0,9.0,100,0.00,,,0.27,Rainwise IP-100,2013-09-03 23:12:00,
2013-09-03 19:42:00,68.0,68.0,29.22,WSW,247,4.0,0.0,100,0.00,,,0.27,Rainwise IP-100,2013-09-03 23:42:00,
2013-09-03 19:47:00,68.0,68.0,29.22,SW,225,4.0,4.0,100,0.00,,,0.27,Rainwise IP-100,2013-09-03 23:47:00,
2013-09-03 19:52:00,68.0,68.0,29.22,SW,225,1.0,4.0,100,0.00,,,0.27,Rainwise IP-100,2013-09-03 23:52:00,
2013-09-03 19:57:00,68.0,68.0,29.23,West,270,5.0,7.0,100,0.00,,,0.27,Rainwise IP-100,2013-09-03 23:57:00,
2013-09-03 20:02:00,68.0,68.0,29.23,West,270,5.0,6.0,100,0.00,,,0.27,Rainwise IP-100,2013-09-04 00:02:00,
2013-09-03 20:07:00,68.0,68.0,29.23,West,270,5.0,6.0,100,0.00,,,0.27,Rainwise IP-100,2013-09-04 00:07:00,
2013-09-03 20:12:00,68.0,68.0,29.23,West,270,5.0,6.0,100,0.00,,,0.27,Rainwise IP-100,2013-09-04 00:12:00,
2013-09-03 20:17:00,68.0,68.0,29.23,West,270,5.0,6.0,100,0.00,,,0.27,Rainwise IP-100,2013-09-04 00:17:00,
2013-09-03 20:22:00,68.0,68.0,29.23,West,270,5.0,6.0,100,0.00,,,0.27,Rainwise IP-100,2013-09-04 00:22:00,
2013-09-03 20:27:00,67.0,67.0,29.24,ESE,112,0.0,6.0,100,0.00,,,0.27,Rainwise IP-100,2013-09-04 00:27:00,
2013-09-03 20:32:00,67.0,67.0,29.24,ESE,112,1.0,1.0,100,0.00,,,0.27,Rainwise IP-100,2013-09-04 00:32:00,
2013-09-03 20:37:00,66.0,66.0,29.24,SE,135,2.0,3.0,100,0.00,,,0.27,Rainwise IP-100,2013-09-04 00:37:00,
2013-09-03 20:42:00,66.0,66.0,29.24,ENE,67,2.0,3.0,100,0.00,,,0.27,Rainwise IP-100,2013-09-04 00:42:00,
2013-09-03 20:47:00,66.0,66.0,29.24,ENE,67,3.0,3.0,100,0.00,,,0.27,Rainwise IP-100,2013-09-04 00:47:00,
2013-09-03 20:52:00,66.0,66.0,29.24,ENE,67,0.0,3.0,100,0.00,,,0.27,Rainwise IP-100,2013-09-04 00:52:00,
2013-09-03 20:57:00,66.0,66.0,29.24,ENE,67,0.0,0.0,100,0.00,,,0.27,Rainwise IP-100,2013-09-04 00:57:00,